Location: Antioch Baptist Church
(32.6696°N, 85.7327°W)
Time: 19:39:19
(UTC+00:00)

Cosmos 1328 - Pass Details

Date: 14 July 2020
Orbit: 538 x 545 km, 82.5° (Epoch: 13 August)

Event Time Altitude Azimuth Distance (km) Brightness Sun altitude
Rises 01:24:17 0° 177° (S) 2,686 7.0 -6.7°
Reaches altitude 10° 01:26:27 10° 174° (S) 1,797 6.1 -7.1°
Maximum altitude 01:30:20 60° 94° (E) 622 3.8 -7.8°
Drops below altitude 10° 01:34:15 10° 14° (NNE) 1,805 6.7 -8.5°
Sets 01:36:25 0° 11° (N) 2,700 7.7 -8.9°
